Location: Leiter
(44.7178°N, 106.2687°W)
Time: 08:50:34
(UTC+00:00)

SO-50 - Visible Passes

Search period start: 01 July 2022 00:00
Search period end: 11 July 2022 00:00
Orbit: 586 x 697 km, 64.6° (Epoch: 30 June)

Date Brightness Start Highest point End Pass type
(mag) Time Alt. Az. Time Alt. Az. Time Alt. Az.
01 Jul ? 06:52:15 36° ESE 06:52:15 36° ESE 06:56:30 10° NE visible
01 Jul ? 08:29:49 19° W 08:32:31 35° NW 08:37:00 10° NNE visible
01 Jul ? 10:13:29 10° NNW 10:14:27 10° NNW 10:15:24 10° N visible
02 Jul ? 07:15:40 63° SSW 07:16:25 83° ESE 07:21:17 10° NE visible
02 Jul ? 08:53:56 10° W 08:57:28 20° NW 09:01:05 10° NNE visible
03 Jul ? 06:01:27 24° E 06:01:27 24° E 06:04:45 10° ENE visible
03 Jul ? 07:39:00 30° WSW 07:41:00 47° NW 07:45:43 10° NNE visible
03 Jul ? 09:20:29 10° NW 09:22:38 13° NNW 09:24:49 10° N visible
04 Jul ? 06:24:43 55° SE 06:25:02 56° ESE 06:29:47 10° NE visible
04 Jul ? 08:02:16 12° W 08:05:49 26° NW 08:09:53 10° NNE visible
05 Jul ? 05:10:20 16° E 05:10:20 16° E 05:12:42 10° ENE visible
05 Jul ? 06:47:53 40° WSW 06:49:30 67° NW 06:54:21 10° NNE visible
05 Jul ? 08:27:57 10° WNW 08:30:52 16° NNW 08:33:50 10° N visible
06 Jul ? 05:33:23 37° SE 05:33:44 38° ESE 05:38:11 10° NE visible
06 Jul ? 07:10:55 16° WSW 07:14:12 34° NW 07:18:39 10° NNE visible
06 Jul ? 08:55:20 10° NNW 08:56:08 10° NNW 08:56:57 10° NNW visible
07 Jul ? 04:18:45 11° ESE 04:18:45 11° ESE 04:19:48 10° E visible
07 Jul ? 05:56:16 38° SSW 05:58:04 85° ESE 06:02:57 10° NE visible
07 Jul ? 07:35:39 10° W 07:39:09 20° NW 07:42:43 10° NNE visible
08 Jul ? 04:41:26 24° SE 04:42:28 26° ESE 04:46:26 10° ENE visible
08 Jul ? 06:18:56 15° WSW 06:22:39 46° NW 06:27:21 10° NNE visible
08 Jul ? 08:02:14 10° NW 08:04:19 13° NNW 08:06:26 10° N visible
09 Jul ? 05:03:46 22° SSW 05:06:41 58° ESE 05:11:27 10° NE visible
09 Jul ? 06:43:32 10° W 06:47:28 25° NW 06:51:32 10° NNE visible
10 Jul ? 03:48:10 10° SSE 03:51:16 18° ESE 03:54:25 10° ENE visible
10 Jul ? 05:26:28 10° SW 05:31:09 65° NW 05:36:01 10° NNE visible
10 Jul ? 07:09:40 10° WNW 07:12:32 15° NNW 07:15:27 10° N visible
